• In Netherlands
  • List of Countries
  • For 7 days
  • Water Temperature
  • Satellite Maps
  • Weather Map
  • Weather Widgets
  • user-avatar
    Login

    Hourly Weather San Luis

    Today, 26 May, Friday

    Time Temperature Precipitation Wind Pressure Humidity
    00:00 +7°C° 0 mm 2 mps 701 mmHg 81%
    01:00 +7°C° 0 mm 2 mps 701 mmHg 78%
    02:00 +7°C° 0 mm 2 mps 702 mmHg 75%
    03:00 +7°C° 0 mm 2 mps 702 mmHg 74%
    04:00 +6°C° 0 mm 2 mps 702 mmHg 72%
    05:00 +6°C° 0 mm 2 mps 702 mmHg 71%
    06:00 +6°C° 0 mm 2 mps 702 mmHg 68%
    07:00 +5°C° 0 mm 3 mps 703 mmHg 66%
    08:00 +7°C° 0 mm 3 mps 703 mmHg 63%
    09:00 +8°C° 0 mm 4 mps 704 mmHg 56%
    10:00 +11°C° 0 mm 4 mps 705 mmHg 48%
    11:00 +13°C° 0 mm 5 mps 706 mmHg 41%
    12:00 +13°C° 0 mm 5 mps 706 mmHg 40%
    13:00 +14°C° 0 mm 5 mps 705 mmHg 39%
    14:00 +14°C° 0 mm 5 mps 705 mmHg 37%
    15:00 +13°C° 0 mm 5 mps 705 mmHg 40%
    16:00 +13°C° 0 mm 5 mps 705 mmHg 43%
    17:00 +12°C° 0 mm 5 mps 705 mmHg 46%
    18:00 +10°C° 0 mm 5 mps 706 mmHg 50%
    19:00 +9°C° 0 mm 5 mps 706 mmHg 53%
    20:00 +7°C° 0 mm 4 mps 707 mmHg 56%
    21:00 +7°C° 0 mm 4 mps 707 mmHg 57%
    22:00 +7°C° 0 mm 4 mps 707 mmHg 58%
    23:00 +7°C° 0 mm 4 mps 708 mmHg 58%

    Tomorrow, 27 May, Saturday

    Time Temperature Precipitation Wind Pressure Humidity
    00:00 +6°C° 0 mm 4 mps 708 mmHg 59%
    01:00 +6°C° 0 mm 4 mps 708 mmHg 59%
    02:00 +6°C° 0 mm 4 mps 707 mmHg 60%
    03:00 +7°C° 0 mm 3 mps 707 mmHg 60%
    04:00 +5°C° 0 mm 3 mps 707 mmHg 61%
    05:00 +5°C° 0 mm 3 mps 707 mmHg 61%
    06:00 +5°C° 0.1 mm 3 mps 707 mmHg 62%
    07:00 +5°C° 0.1 mm 3 mps 707 mmHg 63%
    08:00 +7°C° 0.1 mm 3 mps 708 mmHg 64%
    09:00 +8°C° 0.3 mm 3 mps 708 mmHg 64%
    10:00 +8°C° 0.3 mm 3 mps 708 mmHg 64%
    11:00 +9°C° 0.3 mm 3 mps 708 mmHg 64%
    12:00 +10°C° 0.1 mm 3 mps 707 mmHg 59%
    13:00 +12°C° 0.1 mm 3 mps 707 mmHg 55%
    14:00 +13°C° 0.1 mm 3 mps 706 mmHg 51%
    15:00 +12°C° 0 mm 3 mps 706 mmHg 53%
    16:00 +12°C° 0 mm 3 mps 705 mmHg 55%
    17:00 +11°C° 0 mm 3 mps 705 mmHg 56%
    18:00 +10°C° 0 mm 3 mps 705 mmHg 58%
    19:00 +9°C° 0 mm 3 mps 705 mmHg 61%
    20:00 +8°C° 0 mm 3 mps 705 mmHg 63%
    21:00 +8°C° 0 mm 3 mps 705 mmHg 63%
    22:00 +7°C° 0 mm 3 mps 705 mmHg 63%
    23:00 +7°C° 0 mm 2 mps 705 mmHg 63%

    Day after tomorrow, 28 May, Sunday

    Time Temperature Precipitation Wind Pressure Humidity
    00:00 +7°C° 0 mm 2 mps 705 mmHg 64%
    01:00 +7°C° 0 mm 3 mps 704 mmHg 65%
    02:00 +7°C° 0 mm 3 mps 704 mmHg 66%
    03:00 +5°C° 0 mm 3 mps 704 mmHg 66%
    04:00 +5°C° 0 mm 3 mps 703 mmHg 66%
    05:00 +5°C° 0 mm 3 mps 703 mmHg 65%
    06:00 +5°C° 0 mm 3 mps 703 mmHg 62%
    07:00 +5°C° 0 mm 3 mps 703 mmHg 59%
    08:00 +5°C° 0 mm 3 mps 703 mmHg 56%
    09:00 +8°C° 0 mm 3 mps 704 mmHg 49%
    10:00 +10°C° 0 mm 4 mps 704 mmHg 42%
    11:00 +13°C° 0 mm 4 mps 704 mmHg 36%
    12:00 +13°C° 0 mm 3 mps 704 mmHg 34%
    13:00 +14°C° 0 mm 3 mps 703 mmHg 32%
    14:00 +16°C° 0 mm 3 mps 702 mmHg 31%
    15:00 +14°C° 0 mm 3 mps 702 mmHg 35%
    16:00 +14°C° 0 mm 2 mps 701 mmHg 39%
    17:00 +13°C° 0 mm 2 mps 701 mmHg 44%
    18:00 +12°C° 0 mm 2 mps 701 mmHg 48%
    19:00 +10°C° 0 mm 2 mps 701 mmHg 52%
    20:00 +9°C° 0 mm 3 mps 701 mmHg 56%
    21:00 +8°C° 0 mm 2 mps 701 mmHg 56%
    22:00 +8°C° 0 mm 2 mps 701 mmHg 56%
    23:00 +8°C° 0 mm 2 mps 701 mmHg 56%

    29 May, Monday

    Time Temperature Precipitation Wind Pressure Humidity
    00:00 +7°C° 0 mm 2 mps 701 mmHg 57%
    01:00 +7°C° 0 mm 2 mps 701 mmHg 58%
    02:00 +7°C° 0 mm 3 mps 701 mmHg 59%
    03:00 +7°C° 0 mm 3 mps 701 mmHg 63%
    04:00 +7°C° 0 mm 3 mps 701 mmHg 68%
    05:00 +7°C° 0 mm 3 mps 701 mmHg 73%
    06:00 +7°C° 0 mm 2 mps 702 mmHg 74%
    07:00 +7°C° 0 mm 2 mps 702 mmHg 76%
    08:00 +7°C° 0 mm 2 mps 703 mmHg 78%
    09:00 +9°C° 0 mm 2 mps 703 mmHg 71%
    10:00 +12°C° 0 mm 2 mps 704 mmHg 65%
    11:00 +14°C° 0 mm 2 mps 704 mmHg 59%
    12:00 +14°C° 0 mm 2 mps 704 mmHg 58%
    13:00 +14°C° 0 mm 2 mps 704 mmHg 57%
    14:00 +14°C° 0 mm 1 mps 703 mmHg 56%
    15:00 +14°C° 0 mm 2 mps 703 mmHg 58%
    16:00 +13°C° 0 mm 2 mps 703 mmHg 61%
    17:00 +13°C° 0 mm 2 mps 704 mmHg 64%
    18:00 +12°C° 0 mm 2 mps 704 mmHg 67%
    19:00 +10°C° 0 mm 2 mps 704 mmHg 70%
    20:00 +9°C° 0 mm 2 mps 705 mmHg 74%
    21:00 +9°C° 0 mm 2 mps 705 mmHg 75%
    22:00 +9°C° 0 mm 2 mps 705 mmHg 75%
    23:00 +9°C° 0 mm 1 mps 705 mmHg 76%

    30 May, Tuesday

    Time Temperature Precipitation Wind Pressure Humidity
    00:00 +9°C° 0 mm 1 mps 705 mmHg 78%
    01:00 +9°C° 0 mm 1 mps 705 mmHg 80%
    02:00 +8°C° 0 mm 1 mps 705 mmHg 81%
    03:00 +8°C° 0 mm 1 mps 705 mmHg 83%
    04:00 +8°C° 0 mm 1 mps 705 mmHg 84%
    05:00 +8°C° 0 mm 1 mps 705 mmHg 85%
    06:00 +8°C° 0 mm 1 mps 705 mmHg 86%
    07:00 +8°C° 0 mm 1 mps 706 mmHg 87%
    08:00 +8°C° 0 mm 1 mps 706 mmHg 88%
    09:00 +9°C° 0 mm 1 mps 706 mmHg 79%
    10:00 +11°C° 0 mm 1 mps 707 mmHg 70%
    11:00 +13°C° 0 mm 1 mps 707 mmHg 62%
    12:00 +13°C° 0 mm 1 mps 706 mmHg 58%
    13:00 +14°C° 0 mm 1 mps 705 mmHg 54%
    14:00 +15°C° 0 mm 1 mps 705 mmHg 50%
    15:00 +14°C° 0 mm 1 mps 704 mmHg 54%
    16:00 +13°C° 0 mm 1 mps 704 mmHg 58%
    17:00 +13°C° 0 mm 1 mps 704 mmHg 62%
    18:00 +12°C° 0 mm 1 mps 704 mmHg 66%
    19:00 +11°C° 0 mm 1 mps 704 mmHg 69%
    20:00 +9°C° 0 mm 2 mps 704 mmHg 73%
    21:00 +9°C° 0 mm 2 mps 704 mmHg 74%
    22:00 +8°C° 0 mm 2 mps 704 mmHg 75%
    23:00 +8°C° 0 mm 2 mps 703 mmHg 76%

    31 May, Wednesday

    Time Temperature Precipitation Wind Pressure Humidity
    00:00 +8°C° 0 mm 2 mps 703 mmHg 75%
    01:00 +8°C° 0 mm 2 mps 703 mmHg 74%
    02:00 +7°C° 0 mm 2 mps 702 mmHg 74%
    03:00 +7°C° 0 mm 2 mps 702 mmHg 74%
    04:00 +7°C° 0 mm 3 mps 702 mmHg 74%
    05:00 +7°C° 0 mm 3 mps 701 mmHg 74%
    06:00 +7°C° 0 mm 2 mps 702 mmHg 72%
    07:00 +7°C° 0 mm 2 mps 702 mmHg 70%
    08:00 +8°C° 0 mm 2 mps 702 mmHg 68%
    09:00 +10°C° 0 mm 3 mps 702 mmHg 60%
    10:00 +12°C° 0 mm 3 mps 703 mmHg 53%
    11:00 +14°C° 0 mm 3 mps 703 mmHg 45%
    12:00 +16°C° 0 mm 3 mps 703 mmHg 43%
    13:00 +16°C° 0 mm 2 mps 702 mmHg 41%
    14:00 +17°C° 0 mm 2 mps 702 mmHg 38%
    15:00 +16°C° 0 mm 2 mps 702 mmHg 43%
    16:00 +15°C° 0 mm 2 mps 702 mmHg 48%
    17:00 +14°C° 0 mm 1 mps 702 mmHg 52%
    18:00 +13°C° 0 mm 1 mps 702 mmHg 57%
    19:00 +11°C° 0 mm 1 mps 702 mmHg 61%
    20:00 +10°C° 0 mm 1 mps 702 mmHg 66%
    21:00 +9°C° 0 mm 1 mps 703 mmHg 68%
    22:00 +9°C° 0 mm 1 mps 703 mmHg 69%
    23:00 +9°C° 0 mm 1 mps 703 mmHg 71%
    Show more